CDT,Max TemperatureF,Mean TemperatureF,Min TemperatureF,Max Dew PointF,MeanDew PointF,Min DewpointF,Max Humidity, Mean Humidity, Min Humidity, Max Sea Level PressureIn, Mean Sea Level PressureIn, Min Sea Level PressureIn, Max VisibilityMiles, Mean VisibilityMiles, Min VisibilityMiles, Max Wind SpeedMPH, Mean Wind SpeedMPH, Max Gust SpeedMPH,PrecipitationIn, CloudCover, Events, WindDirDegrees
2011-10-1,73,60,46,48,40,34,82,53,36,30.03,29.95,29.92,10,10,7,18,13,26,0.00,0,,175
2011-10-2,86,67,48,50,47,45,93,62,25,29.97,29.93,29.86,10,10,10,16,10,24,0.00,0,,126
2011-10-3,68,57,46,50,47,43,93,69,49,30.04,29.99,29.92,10,10,8,18,9,,0.00,0,,69
2011-10-4,75,60,46,54,49,45,100,74,41,30.03,29.92,29.78,10,10,10,20,14,23,0.00,0,,93
2011-10-5,86,74,62,50,45,37,59,40,19,29.74,29.68,29.64,10,10,10,31,17,43,0.00,0,,158
2011-10-6,75,68,60,55,47,43,64,48,40,29.69,29.65,29.58,10,10,7,31,20,41,0.00,1,Rain-Thunderstorm,147
2011-10-7,64,58,51,55,48,32,88,70,30,29.59,29.42,29.32,10,10,2,28,18,40,0.00,2,,181
2011-10-8,57,52,46,46,43,37,87,72,51,30.20,29.93,29.56,10,10,10,24,18,33,0.00,4,,280
2011-10-9,55,44,32,46,39,32,100,80,54,30.28,30.21,30.02,10,10,5,17,6,22,0.00,3,,87
2011-10-10,53,50,46,52,48,46,100,95,82,29.95,29.75,29.66,10,7,1,20,11,24,0.10,8,Rain,214
2011-10-11,69,55,41,48,44,39,100,74,35,29.67,29.64,29.61,10,10,8,12,7,,0.00,0,,166
2011-10-12,64,55,46,50,48,45,100,82,56,29.80,29.69,29.60,10,10,3,18,8,31,0.05,2,Rain-Thunderstorm,298
2011-10-13,41,38,35,41,38,36,100,100,100,29.80,29.80,29.80,10,7,4,,,,0.00,1,,-1
2011-10-14,,,,,,,,,,,,,,,,,,,0.00,,,-1
2011-10-15,,,,,,,,,,,,,,,,,,,0.00,,,-1
2011-10-16,33,,33,32,32,32,93,93,93,29.94,29.94,29.94,10,10,10,16,16,,0.00,,,300
2011-10-17,50,38,26,32,29,25,93,75,43,29.98,29.95,29.92,10,10,10,28,12,33,0.00,0,,297
2011-10-18,48,36,23,28,23,19,100,63,32,30.22,30.18,30.09,10,10,10,21,9,25,0.00,0,,316
2011-10-19,42,28,14,25,19,12,93,71,39,30.27,30.23,30.14,10,10,10,7,2,,0.00,0,,157
2011-10-20,44,34,26,32,26,25,93,83,57,30.11,30.05,29.99,10,6,3,9,8,,0.00,0,,154
2011-10-21,,,,,,,,,,,,,,,,,,,0.00,,,-1
2011-10-22,,,,,,,,,,,,,,,,,,,0.00,,,-1
2011-10-23,,,,,,,,,,,,,,,,,,,0.00,,,-1
2011-10-24,,,,,,,,,,,,,,,,,,,0.00,,,-1
2011-10-25,,,,,,,,,,,,,,,,,,,0.00,,,-1
2011-10-26,46,39,32,32,31,28,100,77,50,30.08,30.07,30.06,10,10,6,24,11,31,0.01,4,Rain,314
2011-10-27,48,36,24,39,31,25,100,89,54,30.05,29.95,29.86,10,9,1,21,6,25,0.00,2,Rain,197
2011-10-28,46,34,23,32,26,19,100,78,46,30.08,30.04,29.98,6,3,1,17,10,23,0.00,0,,287
2011-10-29,46,36,26,39,28,23,100,71,46,29.97,29.79,29.65,10,10,9,20,10,31,0.00,2,Rain,172
2011-10-30,42,38,32,36,32,28,100,87,61,29.94,29.84,29.77,10,10,9,23,14,29,0.00,7,,290
2011-10-31,59,46,32,41,34,27,93,64,44,29.88,29.68,29.61,10,10,10,16,11,18,0.00,0,,243